TimeEST,TemperatureF,Dew PointF,Humidity,Sea Level PressureIn,VisibilityMPH,Wind Direction,Wind SpeedMPH,Gust SpeedMPH,PrecipitationIn,Events,Conditions,WindDirDegrees,DateUTC
12:51 AM,9.0,1.0,70,30.40,10.0,SW,4.6,-,N/A,,Clear,220,2013-02-02 05:51:00
1:51 AM,9.0,1.9,73,30.38,10.0,South,3.5,-,N/A,,Clear,170,2013-02-02 06:51:00
2:51 AM,10.9,3.0,70,30.38,10.0,SSW,4.6,-,N/A,,Clear,210,2013-02-02 07:51:00
3:51 AM,10.0,1.9,70,30.37,10.0,South,5.8,-,N/A,,Clear,170,2013-02-02 08:51:00
4:51 AM,9.0,1.9,73,30.36,10.0,South,3.5,-,N/A,,Clear,180,2013-02-02 09:51:00
5:51 AM,10.0,3.0,73,30.36,10.0,Calm,Calm,-,N/A,,Clear,0,2013-02-02 10:51:00
6:51 AM,10.0,3.9,76,30.35,10.0,South,3.5,-,N/A,,Clear,170,2013-02-02 11:51:00
7:51 AM,14.0,5.0,67,30.34,10.0,South,3.5,-,N/A,,Scattered Clouds,190,2013-02-02 12:51:00
8:51 AM,18.0,7.0,62,30.33,10.0,South,6.9,-,N/A,,Overcast,190,2013-02-02 13:51:00
9:51 AM,21.0,7.0,55,30.31,10.0,WSW,3.5,-,N/A,,Overcast,240,2013-02-02 14:51:00
10:51 AM,24.1,3.9,42,30.27,10.0,SW,8.1,-,N/A,,Mostly Cloudy,230,2013-02-02 15:51:00
11:01 AM,24.8,3.2,40,30.11,10.0,SW,10.4,-,N/A,,Mostly Cloudy,220,2013-02-02 16:01:00
11:37 AM,21.2,12.2,68,30.11,1.8,WSW,11.5,-,0.00,Snow,Light Snow,240,2013-02-02 16:37:00
11:51 AM,21.9,15.1,75,30.27,1.8,WSW,5.8,-,0.00,Snow,Light Snow,240,2013-02-02 16:51:00
12:21 PM,21.2,17.6,86,30.09,0.8,WSW,6.9,-,0.00,Snow,Light Snow,250,2013-02-02 17:21:00
12:32 PM,21.2,17.6,86,30.09,1.2,West,6.9,-,0.01,Snow,Light Snow,260,2013-02-02 17:32:00
12:51 PM,21.9,17.1,82,30.22,1.2,SW,6.9,-,0.01,Snow,Light Snow,220,2013-02-02 17:51:00
12:56 PM,21.2,17.6,86,30.06,0.8,SW,6.9,-,0.00,Snow,Light Snow,220,2013-02-02 17:56:00
1:03 PM,21.2,17.6,86,30.06,0.2,SW,8.1,-,0.01,Fog-Snow,Heavy Snow,220,2013-02-02 18:03:00
1:21 PM,21.2,17.6,86,30.03,0.5,SSW,9.2,-,0.03,Fog-Snow,Light Snow,200,2013-02-02 18:21:00
1:51 PM,21.9,19.0,89,30.16,0.5,South,10.4,-,0.04,Fog-Snow,Snow,190,2013-02-02 18:51:00
2:16 PM,23.0,19.4,86,29.98,1.2,South,6.9,-,0.01,Snow,Light Snow,180,2013-02-02 19:16:00
2:22 PM,24.8,19.4,80,29.97,0.8,SSE,4.6,-,0.02,Snow,Light Snow,160,2013-02-02 19:22:00
2:33 PM,24.8,21.2,86,29.98,1.5,SSW,6.9,-,0.02,Snow,Light Snow,200,2013-02-02 19:33:00
2:44 PM,26.6,21.2,80,29.97,2.5,SSW,9.2,-,0.02,Snow,Light Snow,200,2013-02-02 19:44:00
2:51 PM,26.1,21.0,81,30.11,1.8,SW,12.7,21.9,0.02,Snow,Light Snow,220,2013-02-02 19:51:00
3:12 PM,26.6,21.2,80,29.96,2.0,SSW,12.7,21.9,0.01,Snow,Light Snow,210,2013-02-02 20:12:00
3:36 PM,26.6,21.2,80,29.96,4.0,SW,9.2,-,0.01,Snow,Light Snow,220,2013-02-02 20:36:00
3:44 PM,26.6,21.2,80,29.96,5.0,SW,8.1,-,0.01,Snow,Light Snow,230,2013-02-02 20:44:00
3:51 PM,27.0,21.9,81,30.10,4.0,SW,8.1,-,0.01,Snow,Light Snow,230,2013-02-02 20:51:00
4:07 PM,26.6,21.2,80,29.95,2.0,SW,8.1,18.4,0.00,Snow,Light Snow,230,2013-02-02 21:07:00
4:14 PM,26.6,21.2,80,29.95,3.0,SW,6.9,-,0.00,Snow,Light Snow,220,2013-02-02 21:14:00
4:28 PM,26.6,21.2,80,29.95,4.0,SW,10.4,-,0.00,Snow,Light Snow,230,2013-02-02 21:28:00
4:49 PM,26.6,21.2,80,29.94,1.8,SW,11.5,-,0.00,Snow,Light Snow,230,2013-02-02 21:49:00
4:51 PM,27.0,21.9,81,30.09,1.5,SW,10.4,-,0.00,Snow,Light Snow,220,2013-02-02 21:51:00
5:02 PM,26.6,23.0,86,29.94,2.0,SW,9.2,-,0.00,Snow,Light Snow,230,2013-02-02 22:02:00
5:04 PM,26.6,21.2,80,29.94,3.0,SW,10.4,-,0.00,Snow,Light Snow,230,2013-02-02 22:04:00
5:30 PM,26.6,23.0,86,29.95,1.8,WSW,6.9,-,0.00,Snow,Light Snow,240,2013-02-02 22:30:00
5:48 PM,26.6,23.0,86,29.94,0.8,WSW,4.6,-,0.01,Snow,Light Snow,240,2013-02-02 22:48:00
5:51 PM,27.0,23.0,85,30.09,1.0,SW,3.5,-,0.01,Snow,Light Snow,230,2013-02-02 22:51:00
6:18 PM,26.6,23.0,86,29.95,3.0,WSW,5.8,-,0.01,Snow,Light Snow,250,2013-02-02 23:18:00
6:41 PM,26.6,23.0,86,29.95,2.5,SW,5.8,-,0.01,Snow,Light Snow,230,2013-02-02 23:41:00
6:48 PM,26.6,23.0,86,29.95,3.0,WSW,8.1,-,0.01,Snow,Light Snow,240,2013-02-02 23:48:00
6:51 PM,27.0,23.0,85,30.10,3.0,WSW,6.9,-,0.01,Snow,Light Snow,240,2013-02-02 23:51:00
7:51 PM,26.6,23.0,86,29.95,2.5,WSW,8.1,-,N/A,Snow,Light Snow,250,2013-02-03 00:51:00
8:01 PM,26.6,23.0,86,29.95,5.0,WSW,6.9,-,0.00,Snow,Light Snow,240,2013-02-03 01:01:00
8:21 PM,26.6,23.0,86,29.95,5.0,West,6.9,-,0.00,Snow,Light Snow,260,2013-02-03 01:21:00
8:51 PM,27.0,23.0,85,30.07,9.0,WSW,4.6,-,0.00,Snow,Light Snow,250,2013-02-03 01:51:00
9:10 PM,26.6,23.0,86,29.95,4.0,WSW,4.6,-,0.00,Snow,Light Snow,250,2013-02-03 02:10:00
9:21 PM,26.6,23.0,86,29.95,5.0,WSW,3.5,-,0.00,Snow,Light Snow,240,2013-02-03 02:21:00
9:51 PM,27.0,23.0,85,30.07,4.0,SW,5.8,-,0.01,Snow,Light Snow,230,2013-02-03 02:51:00
10:00 PM,26.6,23.0,86,29.95,2.0,WSW,4.6,-,0.00,Snow,Light Snow,240,2013-02-03 03:00:00
10:09 PM,26.6,24.8,93,29.95,1.2,SW,4.6,-,0.00,Snow,Light Snow,230,2013-02-03 03:09:00
10:24 PM,26.6,24.8,93,29.94,1.5,SW,6.9,-,0.01,Snow,Light Snow,230,2013-02-03 03:24:00
10:28 PM,26.6,23.0,86,29.94,3.0,WSW,4.6,-,0.01,Snow,Light Snow,240,2013-02-03 03:28:00
10:44 PM,26.6,23.0,86,29.93,5.0,WSW,4.6,-,0.01,Snow,Light Snow,240,2013-02-03 03:44:00
10:51 PM,26.1,23.0,88,30.05,6.0,WSW,6.9,-,0.01,Snow,Light Snow,240,2013-02-03 03:51:00
11:25 PM,26.6,23.0,86,29.94,2.5,WSW,6.9,-,0.00,Snow,Light Snow,240,2013-02-03 04:25:00
11:35 PM,26.6,23.0,86,29.93,1.8,WSW,6.9,-,0.01,Snow,Light Snow,240,2013-02-03 04:35:00
11:51 PM,26.1,23.0,88,30.05,1.8,WSW,5.8,-,0.01,Snow,Light Snow,240,2013-02-03 04:51:00